When you browse on this site, cookies collect data to enhance your experience and personalize the content and advertising you see.
Visit our Privacy Policy to learn more. By continuing to use the site, you agree to this use of cookies and data.
  • In Portugal
  • List of Countries
  • For 7 days
  • Water Temperature
  • Weather Map
  • Weather Widgets
  • user-avatar
    Login

    Hourly Weather Shemyakino

    Today, 26 August, Monday

    Time Temperature Precipitation Wind Pressure Humidity
    00:00 +14°C° 0 mm 2 mps 751 mmHg 86%
    01:00 +14°C° 0 mm 2 mps 751 mmHg 88%
    02:00 +13°C° 0 mm 1 mps 752 mmHg 89%
    03:00 +13°C° 0 mm 1 mps 752 mmHg 90%
    04:00 +13°C° 0 mm 1 mps 752 mmHg 91%
    05:00 +12°C° 0 mm 1 mps 751 mmHg 92%
    06:00 +14°C° 0 mm 1 mps 752 mmHg 86%
    07:00 +16°C° 0 mm 1 mps 752 mmHg 80%
    08:00 +18°C° 0 mm 1 mps 752 mmHg 74%
    09:00 +20°C° 0 mm 1 mps 752 mmHg 69%
    10:00 +21°C° 0 mm 1 mps 752 mmHg 63%
    11:00 +22°C° 0 mm 1 mps 752 mmHg 58%
    12:00 +23°C° 0 mm 1 mps 751 mmHg 56%
    13:00 +23°C° 0 mm 1 mps 751 mmHg 54%
    14:00 +23°C° 0 mm 1 mps 751 mmHg 52%
    15:00 +23°C° 0 mm 1 mps 750 mmHg 55%
    16:00 +23°C° 0 mm 1 mps 750 mmHg 59%
    17:00 +23°C° 0 mm 1 mps 750 mmHg 62%
    18:00 +21°C° 0 mm 1 mps 749 mmHg 65%
    19:00 +19°C° 0 mm 1 mps 749 mmHg 68%
    20:00 +18°C° 0 mm 1 mps 749 mmHg 71%
    21:00 +16°C° 0 mm 2 mps 749 mmHg 73%
    22:00 +16°C° 0 mm 2 mps 749 mmHg 76%
    23:00 +15°C° 0 mm 2 mps 748 mmHg 78%

    Tomorrow, 27 August, Tuesday

    Time Temperature Precipitation Wind Pressure Humidity
    00:00 +15°C° 0 mm 2 mps 748 mmHg 80%
    01:00 +15°C° 0 mm 2 mps 748 mmHg 82%
    02:00 +14°C° 0 mm 2 mps 748 mmHg 85%
    03:00 +13°C° 0 mm 3 mps 747 mmHg 85%
    04:00 +13°C° 0 mm 3 mps 747 mmHg 86%
    05:00 +13°C° 0 mm 3 mps 747 mmHg 87%
    06:00 +16°C° 0 mm 3 mps 747 mmHg 84%
    07:00 +17°C° 0 mm 4 mps 747 mmHg 81%
    08:00 +18°C° 0 mm 4 mps 746 mmHg 78%
    09:00 +20°C° 0.1 mm 5 mps 746 mmHg 74%
    10:00 +21°C° 0.1 mm 5 mps 746 mmHg 70%
    11:00 +23°C° 0.1 mm 5 mps 746 mmHg 66%
    12:00 +23°C° 0.2 mm 5 mps 746 mmHg 65%
    13:00 +23°C° 0.2 mm 5 mps 746 mmHg 64%
    14:00 +23°C° 0.2 mm 5 mps 746 mmHg 63%
    15:00 +22°C° 0.1 mm 4 mps 746 mmHg 66%
    16:00 +22°C° 0.1 mm 4 mps 745 mmHg 68%
    17:00 +21°C° 0.1 mm 3 mps 745 mmHg 70%
    18:00 +20°C° 0 mm 3 mps 746 mmHg 73%
    19:00 +18°C° 0 mm 3 mps 746 mmHg 77%
    20:00 +16°C° 0 mm 3 mps 746 mmHg 80%
    21:00 +14°C° 0 mm 3 mps 746 mmHg 82%
    22:00 +14°C° 0 mm 3 mps 746 mmHg 83%
    23:00 +13°C° 0 mm 3 mps 747 mmHg 85%

    Day after tomorrow, 28 August, Wednesday

    Time Temperature Precipitation Wind Pressure Humidity
    00:00 +13°C° 0 mm 2 mps 747 mmHg 87%
    01:00 +13°C° 0 mm 2 mps 747 mmHg 90%
    02:00 +12°C° 0 mm 2 mps 747 mmHg 93%
    03:00 +12°C° 0 mm 2 mps 748 mmHg 93%
    04:00 +10°C° 0 mm 3 mps 748 mmHg 93%
    05:00 +10°C° 0 mm 3 mps 748 mmHg 94%
    06:00 +11°C° 0 mm 3 mps 748 mmHg 87%
    07:00 +12°C° 0 mm 4 mps 749 mmHg 81%
    08:00 +13°C° 0 mm 4 mps 749 mmHg 74%
    09:00 +14°C° 0 mm 4 mps 749 mmHg 69%
    10:00 +15°C° 0 mm 4 mps 749 mmHg 64%
    11:00 +17°C° 0 mm 4 mps 749 mmHg 59%
    12:00 +17°C° 0 mm 4 mps 749 mmHg 58%
    13:00 +18°C° 0 mm 4 mps 749 mmHg 57%
    14:00 +18°C° 0 mm 4 mps 749 mmHg 56%
    15:00 +18°C° 0 mm 4 mps 749 mmHg 58%
    16:00 +17°C° 0 mm 3 mps 749 mmHg 60%
    17:00 +17°C° 0 mm 3 mps 749 mmHg 63%
    18:00 +14°C° 0 mm 3 mps 749 mmHg 65%
    19:00 +12°C° 0 mm 3 mps 750 mmHg 67%
    20:00 +10°C° 0 mm 3 mps 750 mmHg 69%
    21:00 +9°C° 0 mm 2 mps 750 mmHg 70%
    22:00 +9°C° 0 mm 2 mps 750 mmHg 72%
    23:00 +8°C° 0 mm 2 mps 750 mmHg 73%

    29 August, Thursday

    Time Temperature Precipitation Wind Pressure Humidity
    00:00 +8°C° 0 mm 2 mps 750 mmHg 75%
    01:00 +7°C° 0 mm 2 mps 751 mmHg 77%
    02:00 +7°C° 0 mm 2 mps 751 mmHg 79%
    03:00 +7°C° 0 mm 2 mps 751 mmHg 80%
    04:00 +6°C° 0 mm 2 mps 751 mmHg 82%
    05:00 +6°C° 0 mm 2 mps 751 mmHg 84%
    06:00 +8°C° 0 mm 2 mps 751 mmHg 79%
    07:00 +10°C° 0 mm 2 mps 751 mmHg 73%
    08:00 +12°C° 0 mm 2 mps 751 mmHg 68%
    09:00 +14°C° 0 mm 2 mps 751 mmHg 63%
    10:00 +15°C° 0 mm 2 mps 751 mmHg 58%
    11:00 +16°C° 0 mm 2 mps 751 mmHg 53%
    12:00 +17°C° 0 mm 2 mps 751 mmHg 52%
    13:00 +17°C° 0 mm 2 mps 750 mmHg 51%
    14:00 +18°C° 0 mm 2 mps 750 mmHg 49%
    15:00 +19°C° 0 mm 1 mps 750 mmHg 54%
    16:00 +18°C° 0 mm 1 mps 750 mmHg 58%
    17:00 +18°C° 0 mm 1 mps 749 mmHg 63%
    18:00 +16°C° 0 mm 1 mps 749 mmHg 66%
    19:00 +14°C° 0 mm 1 mps 749 mmHg 69%
    20:00 +12°C° 0 mm 0 mps 749 mmHg 72%
    21:00 +12°C° 0 mm 1 mps 749 mmHg 73%
    22:00 +12°C° 0 mm 1 mps 749 mmHg 74%
    23:00 +12°C° 0 mm 1 mps 749 mmHg 75%

    30 August, Friday

    Time Temperature Precipitation Wind Pressure Humidity
    00:00 +12°C° 0 mm 1 mps 749 mmHg 77%
    01:00 +11°C° 0 mm 1 mps 748 mmHg 78%
    02:00 +11°C° 0 mm 1 mps 748 mmHg 80%
    03:00 +11°C° 0 mm 1 mps 748 mmHg 81%
    04:00 +11°C° 0 mm 1 mps 748 mmHg 82%
    05:00 +9°C° 0 mm 2 mps 748 mmHg 83%
    06:00 +12°C° 0 mm 2 mps 748 mmHg 78%
    07:00 +14°C° 0 mm 2 mps 748 mmHg 73%
    08:00 +16°C° 0 mm 2 mps 748 mmHg 67%
    09:00 +17°C° 0 mm 2 mps 748 mmHg 64%
    10:00 +19°C° 0 mm 3 mps 748 mmHg 60%
    11:00 +20°C° 0 mm 3 mps 748 mmHg 56%
    12:00 +21°C° 0 mm 3 mps 748 mmHg 55%
    13:00 +21°C° 0 mm 3 mps 747 mmHg 54%
    14:00 +22°C° 0 mm 3 mps 747 mmHg 53%
    15:00 +21°C° 0 mm 2 mps 747 mmHg 58%
    16:00 +21°C° 0 mm 2 mps 747 mmHg 62%
    17:00 +20°C° 0 mm 2 mps 747 mmHg 67%
    18:00 +19°C° 0 mm 2 mps 747 mmHg 72%
    19:00 +17°C° 0 mm 2 mps 747 mmHg 76%
    20:00 +16°C° 0 mm 2 mps 747 mmHg 80%
    21:00 +15°C° 0 mm 1 mps 747 mmHg 82%
    22:00 +14°C° 0 mm 1 mps 747 mmHg 85%
    23:00 +14°C° 0 mm 1 mps 747 mmHg 87%

    31 August, Saturday

    Time Temperature Precipitation Wind Pressure Humidity
    00:00 +13°C° 0 mm 1 mps 747 mmHg 88%
    01:00 +12°C° 0 mm 0 mps 747 mmHg 89%
    02:00 +12°C° 0 mm 0 mps 747 mmHg 89%
    03:00 +11°C° 0 mm 0 mps 747 mmHg 89%
    04:00 +12°C° 0 mm 1 mps 747 mmHg 89%
    05:00 +12°C° 0 mm 1 mps 747 mmHg 89%
    06:00 +14°C° 0 mm 1 mps 747 mmHg 83%
    07:00 +16°C° 0 mm 1 mps 747 mmHg 77%
    08:00 +19°C° 0 mm 1 mps 747 mmHg 71%
    09:00 +20°C° 0 mm 1 mps 747 mmHg 66%
    10:00 +20°C° 0 mm 2 mps 747 mmHg 61%
    11:00 +23°C° 0 mm 2 mps 747 mmHg 56%
    12:00 +23°C° 0 mm 2 mps 747 mmHg 54%
    13:00 +24°C° 0 mm 2 mps 746 mmHg 52%
    14:00 +24°C° 0 mm 3 mps 746 mmHg 51%
    15:00 +22°C° 0 mm 3 mps 746 mmHg 55%
    16:00 +23°C° 0 mm 2 mps 746 mmHg 60%
    17:00 +21°C° 0 mm 2 mps 745 mmHg 64%
    18:00 +19°C° 0 mm 2 mps 745 mmHg 67%
    19:00 +18°C° 0 mm 2 mps 745 mmHg 70%
    20:00 +16°C° 0 mm 2 mps 745 mmHg 73%
    21:00 +15°C° 0 mm 2 mps 745 mmHg 75%
    22:00 +15°C° 0 mm 1 mps 745 mmHg 77%
    23:00 +14°C° 0 mm 1 mps 745 mmHg 78%
    Show more